Regional Weather Roundup
Issued by NWS Sterling, VA

Home | Current Version | Previous Version | Graphics & Text | Print | Product List | Glossary On
Versions: 1 2 3 4 5 6 7 8 9 10 11 12 13 14 15 16 17 18 19 20 21 22 23 24 25 26 27 28 29 30 31 32 33 34 35 36 37 38 39 40 41 42 43 44 45 46 47 48 49 50
000
ASUS41 KLWX 232010
RWRLWX

REGIONAL WEATHER ROUNDUP
NATIONAL WEATHER SERVICE BALTIMORE MD/WASHINGTON DC
400 PM EDT SAT MAY 23 2015

Note: "FAIR" indicates few or no clouds below 12,000 feet
with no significant weather and/or obstructions to visibility.
 TC=TEMPERATURE CELSIUS

 * =Non NWS site. Station does not report precipitation (e.g. rain,
    snow, etc.), thunder, or fog.

DCZ001-MDZ009-015-VAZ040>042-051-053>054-232100-
WASHINGTON METRO

CITY           SKY/WX    TMP DP  RH WIND       PRES   REMARKS
WASHINGTON NAT MOSUNNY   75  35  23 VRB6      30.40F
DULLES         MOSUNNY   71  35  26 W9        30.40F
ANDREWS AFB    SUNNY     71  34  25 VRB5      30.39F
FT BELVOIR     SUNNY     72  33  24 VRB2      30.40F
QUANTICO       SUNNY     70  40  33 S10       30.42F
COLLEGE PARK*  SUNNY     72  30  21 NW6       30.39F
LEESBURG*      SUNNY     72  41  33 SW5       30.40F
MANASSAS*      SUNNY     72  37  28 CALM      30.40F
GAITHERSBURG*  SUNNY     70  36  28 W7        30.43F

$$

MDZ006>007-011-014-232100-
BALTIMORE METRO

CITY           SKY/WX    TMP DP  RH WIND       PRES   REMARKS
BWI AIRPORT    MOSUNNY   70  32  24 VRB3      30.39F
MD SCIENCE CTR   N/A     67  37  33 MISG      30.40F
MARTIN STATE   SUNNY     68  39  34 SE10      30.41F
ANNAPOLIS      SUNNY     64  37  36 SE10      30.40F
FORT MEADE*    SUNNY     70  34  26 SW5       30.41F

$$

MDZ012-015-019>023-232100-
MARYLAND EASTERN SHORE

CITY           SKY/WX    TMP DP  RH WIND       PRES   REMARKS
OCEAN CITY     SUNNY     60  42  51 SE8       30.43F
SALISBURY      SUNNY     70  31  23 CALM      30.40F
BAY BRIDGE AP*   N/A    N/A N/A N/A SE6       30.41F
CAMBRIDGE*     SUNNY     70  19  14 N3        30.41F
EASTON*        MOSUNNY   68  34  28 VRB6      30.45F

$$

MDZ017>025-232100-
SOUTHERN MARYLAND

CITY           SKY/WX    TMP DP  RH WIND       PRES   REMARKS
PATUXENT RIVER MOSUNNY   66  35  31 E9        30.41F
ST INIGOES     SUNNY     67  37  33 VRB6      30.41F
LEONARDTOWN*   SUNNY     68  32  26 W7        30.42F

$$

MDZ003>005-232100-
NORTH CENTRAL MARYLAND

CITY           SKY/WX    TMP DP  RH WIND       PRES   REMARKS
FREDERICK*     SUNNY     72  37  28 W5        30.42F
HAGERSTOWN APT SUNNY     71  30  21 VRB5      30.38F
WESTMINSTER*   SUNNY     70  25  18 W8        30.39F

$$

MDZ501>502-232100-
WESTERN MARYLAND

CITY           SKY/WX    TMP DP  RH WIND       PRES   REMARKS
OAKLAND*       SUNNY     64  36  34 NW9       30.41F
CUMBERLAND*    SUNNY     73  34  23 S3        30.39F

$$

VAZ025>031-232100-
SHENANDOAH VALLEY

CITY           SKY/WX    TMP DP  RH WIND       PRES   REMARKS
WINCHESTER*    SUNNY     72  27  18 CALM      30.38F
FRONT ROYAL*   FAIR      72  41  33 SE3       30.37F
LURAY*         FAIR      77  45  31 CALM      30.38F
NEW MARKET*    FAIR      72  43  34 CALM      30.36F
STAUNTON*      MOSUNNY   71  43  35 S6        30.40S
WAYNESBORO*    FAIR      70  47  43 SE13G18   30.39S

$$

WVZ021-048>050-054>055-232100-
EASTERN WEST VIRGINIA PANHANDLE

CITY           SKY/WX    TMP DP  RH WIND       PRES   REMARKS
MARTINSBURG    SUNNY     71  39  31 SE8       30.39F
PETERSBURG*    SUNNY     75  34  23 CALM      30.36F

$$

VAZ036>039-050-232100-
CENTRAL FOOTHILLS

CITY           SKY/WX    TMP DP  RH WIND       PRES   REMARKS
CHARLOTTESVILL SUNNY     72  42  34 S7G17     30.39F
CULPEPER*      SUNNY     71  38  30 W3        30.41S
ORANGE*        SUNNY     73  41  31 S5        30.41F
GORDONSVILLE*  FAIR      72  43  35 S7        30.39F
WARRENTON*     FAIR      74  44  33 SW6       30.40S

$$

VAZ055>057-232100-
NORTH AND CENTRAL PIEDMONT

CITY           SKY/WX    TMP DP  RH WIND       PRES   REMARKS
FREDERICKSBRG* SUNNY     74  40  28 SW3       30.40S
STAFFORD*      SUNNY     72  33  23 S5        30.45S

$$

NCZ024-NYZ072-PAZ021-071-VAZ022-071-232100-
OTHER REGIONAL OBSERVATIONS

CITY           SKY/WX    TMP DP  RH WIND       PRES   REMARKS
NEW YORK CITY  SUNNY     68  26  20 VRB6      30.38F
PHILADELPHIA   SUNNY     69  28  21 SW12      30.39F
PITTSBURGH     MOSUNNY   72  33  24 NW8       30.38F
ROANOKE        MOSUNNY   73  49  42 SE7       30.41F
RICHMOND       MOSUNNY   74  40  29 VRB5      30.40F
RALEIGH        MOSUNNY   77  46  33 S5        30.39F

$$

ANZ530>537-232100-
MARINE OBSERVATIONS

STATION/POSITION TIME  TEMP    WIND        PRES
                       AIR SEA DIR/SP/G
                 (UTC) (F)     (DEG/KT/KT) (MB)
THOMAS PT LIGHT  2000   64 66  140/  7/  8 1030.1F
BALT KEY BRIDGE  1900   61     110/ 12/ 14 1029.7F
LEWISETTA        1900   65 69              1030.1F
SOLOMONS ISLAND  1900      69                N/A
PINEY POINT      1900          170/  3/  3   N/A

$$




USA.gov is the U.S. government's official web portal to all federal, state and local government web resources and services.